Belize, Belize

12:45 AM CST on August 22, 2017 (GMT -0600)
Philip S W Goldson International

Weather History for MZBZ - July, 2015

Change the Weather History Date:

Thursday, July 23, 2015

  Actual Average Record
Temperature  
Mean Temperature 84 °F -  
Max Temperature 88 °F 89 °F 90 °F (2016)
Min Temperature 80 °F 76 °F 75 °F (1998)
Cooling Degree Days 19    
Growing Degree Days 34 (Base 50)    
Moisture  
Dew Point 78 °F    
Average Humidity 77    
Maximum Humidity 89    
Minimum Humidity 70    
Precipitation  
Precipitation 0.00 in 0.26 in - ()
Sea Level Pressure  
Sea Level Pressure 29.99 in    
Wind  
Wind Speed 7 mph ()    
Max Wind Speed 14 mph    
Max Gust Speed -    
Visibility 8.7 miles    
Events      
Averages and records for this station are not official NWS values.
T = Trace of Precipitation, MM = Missing Value Source: Averaged Metar Reports

Daily Weather History Graph

Daily Weather History Graph

Search for Another Location

Airport or City:

Trip Planner

Search our weather history database for the weather conditions in past years. The results will help you decide how hot, cold, wet, or windy it might be!

Date:

Astronomy

Jul. 23, 2015 Rise Set
Actual Time 5:29 AM CST 6:29 PM CST
Civil Twilight 5:05 AM CST 6:53 PM CST
Nautical Twilight 4:38 AM CST 7:20 PM CST
Astronomical Twilight 4:09 AM CST 7:49 PM CST
Moon 11:37 AM CST (7/23) 11:35 PM CST (7/23)
Length of Visible Light 13h 47m
Length of Day
13h 00m
Waxing Crescent, 46% of the Moon is Illuminated
Jul 23
Waxing Crescent
Jul 23
First Quarter
Jul 31
Full
Aug 6
Last Quarter
Aug 14
New

Hourly Weather History & Observations

Time (CST) Temp. Heat Index Dew Point Humidity Pressure Visibility Wind Dir Wind Speed Gust Speed Precip Events Conditions
12:00 AM 82 °F - 77 °F 79% 29.98 in 12 mi East 5.8 mph - -   Partly Cloudy
3:00 AM 81 °F - 76 °F 80% 29.95 in 12 mi East 5.8 mph - -   Scattered Clouds
5:00 AM 80.6 °F 87.1 °F 77.0 °F 89% 29.95 in 6.2 mi East 5.8 mph - N/A   Scattered Clouds
6:00 AM 81 °F - 77 °F 83% 29.98 in 12 mi ESE 3.5 mph - -   Partly Cloudy
6:00 AM 80.6 °F 87.1 °F 77.0 °F 89% 29.97 in 6.2 mi ESE 3.5 mph - N/A   Scattered Clouds
7:00 AM 84.2 °F 94.1 °F 77.0 °F 79% 29.99 in 6.2 mi ESE 3.5 mph - N/A   Scattered Clouds
8:00 AM 86.0 °F 99.3 °F 78.8 °F 79% 30.00 in 6.2 mi ESE 6.9 mph - N/A   Mostly Cloudy
9:00 AM 86 °F - 78 °F 70% 30.02 in 14 mi ESE 8.1 mph - -   Partly Cloudy
9:00 AM 86.0 °F 96.9 °F 77.0 °F 74% 30.01 in 6.2 mi ESE 8.1 mph - N/A   Scattered Clouds
10:00 AM 86.0 °F 96.9 °F 77.0 °F 74% 30.02 in 6.2 mi East 9.2 mph - N/A   Scattered Clouds
11:00 AM 87.8 °F 102.5 °F 78.8 °F 75% 30.02 in 6.2 mi East 10.4 mph - N/A   Scattered Clouds
12:00 PM - - - %  in 14 mi East 11.5 mph - -  
12:00 PM 87.8 °F 102.5 °F 78.8 °F 75% 30.01 in 6.2 mi East 11.5 mph - N/A   Scattered Clouds
1:00 PM 87.8 °F 102.5 °F 78.8 °F 75% 30.00 in 6.2 mi East 11.5 mph - N/A   Scattered Clouds
2:00 PM 87.8 °F 102.5 °F 78.8 °F 75% 29.98 in 6.2 mi East 13.8 mph - N/A   Scattered Clouds
3:00 PM 87 °F - 79 °F 71% 29.98 in 14 mi East 11.5 mph - -   Partly Cloudy
3:00 PM 87.8 °F 102.5 °F 78.8 °F 75% 29.98 in 6.2 mi East 11.5 mph - N/A   Scattered Clouds
4:00 PM 87.8 °F 102.5 °F 78.8 °F 75% 29.97 in 6.2 mi East 11.5 mph - N/A   Scattered Clouds
5:00 PM 86.0 °F 99.3 °F 78.8 °F 79% 29.97 in 6.2 mi East 10.4 mph - N/A   Partly Cloudy
6:00 PM 86 °F - 78 °F 71% 29.99 in 14 mi East 11.5 mph - -   Mostly Cloudy
6:00 PM 86.0 °F 99.3 °F 78.8 °F 79% 29.99 in 6.2 mi East 11.5 mph - N/A   Mostly Cloudy
9:00 PM 84 °F - 78 °F 76% 30.01 in 12 mi East 13.8 mph - -   Mostly Cloudy